Location: ????????
(55.5667°N, 37.5833°E)
Time: 11:05:14
(UTC+00:00)

Cosmos 1656 Rocket - Pass Details

Date: 14 April 2026
Orbit: 794 x 843 km, 71.1° (Epoch: 9 May)

Event Time Altitude Azimuth Distance (km) Brightness Sun altitude
Rises 18:54:08 0° 325° (NW) 3,314 8.5 -17.2°
Reaches altitude 10° 18:56:33 10° 324° (NW) 2,384 7.4 -17.4°
Maximum altitude 19:01:58 72° 241° (WSW) 849 3.7 -17.9°
Enters shadow 19:04:42 30° 164° (SSE) 1,414 4.3 -18.1°
